Regional Weather Roundup
Issued by NWS

Home | Current Version | Previous Version | Graphics & Text | Print | Product List | Glossary On
Versions: 1 2 3 4 5 6 7 8 9 10 11 12 13 14 15 16 17 18 19 20 21 22 23 24 25 26 27 28 29 30 31 32 33 34 35 36 37 38 39 40 41 42 43 44 45 46 47 48 49 50
000
ASUS43 KFSD 251610
RWRSD

WEATHER ROUNDUP FOR SOUTH DAKOTA
NATIONAL WEATHER SERVICE SIOUX FALLS SD
1100 AM CDT SAT OCT 25 2014

NOTE: "FAIR" INDICATES FEW OR NO CLOUDS BELOW 12,000 FEET WITH NO
SIGNIFICANT WEATHER AND/OR OBSTRUCTIONS TO VISIBILITY.


SDZ001>005-009-010-012>017-251700-
NORTHWEST AND NORTH CENTRAL SOUTH DAKOTA

CITY           SKY/WX    TMP DP  RH WIND       PRES   REMARKS
BUFFALO          N/A     53  32  44 SE9       30.07F
FAITH            N/A     57  34  41 SE6       30.16S
MOBRIDGE       SUNNY     54  38  54 CALM      30.15S
$$

SDZ012>016-024>037-041>051-057-063-072>074-251700-
SOUTHWEST AND SOUTH CENTRAL SOUTH DAKOTA

CITY           SKY/WX    TMP DP  RH WIND       PRES   REMARKS
RAPID CTY ARPT SUNNY     54  36  50 S10       30.16F
PIERRE         SUNNY     56  39  53 VRB3      30.17R
CUSTER         SUNNY     51  30  44 CALM      30.21S
ELLSWORTH AFB  SUNNY     55  35  46 S12       30.15F
PHILIP         SUNNY     52  36  54 CALM      30.18S
PINE RIDGE     SUNNY     46  37  71 CALM      30.18F
SPEARFISH      FAIR      54  36  50 CALM      30.12F
WINNER         FAIR      56  37  49 CALM      30.18S
$$

SDZ004>011-016>023-039-040-251700-
NORTHEAST SOUTH DAKOTA

CITY           SKY/WX    TMP DP  RH WIND       PRES   REMARKS
ABERDEEN       SUNNY     56  35  45 N7        30.17R
WATERTOWN      SUNNY     57  34  41 N9        30.14S
SISSETON         N/A     58  32  37 N15       30.13R
$$

SDZ017-020-022-023-036>040-048>070-251700-
SOUTHEAST SOUTH DAKOTA

CITY           SKY/WX    TMP DP  RH WIND       PRES   REMARKS
SIOUX FALLS    MOSUNNY   61  39  44 NE6       30.15R
HURON          SUNNY     59  35  40 NE7       30.16S
CHAMBERLAIN    SUNNY     58  33  39 CALM      30.18S
MITCHELL       SUNNY     57  42  57 CALM      30.17S
YANKTON        SUNNY     57  43  58 NW5       30.16R
$$

ABBREVIATIONS USED IN REMARKS
   TC - TEMPERATURE IN CELSIUS
  WCI - WIND CHILL INDEX
   HX - HEAT INDEX
  VSB - VISIBILITY




USA.gov is the U.S. government's official web portal to all federal, state and local government web resources and services.